DW1341 Weather Reports


time (UTC)temp
C
wind
direction
speed
KPH
gust
KPH
rain 1hr
cm
rain 24hr
cm
rain mn
cm
humidity
%
barometer
mb
20260506103003 10 0 0.0 0.0 0.00 0.00 0.00 86 1014.7
20260506102003 10 0 0.0 0.0 0.00 0.00 0.00 86 1014.5
20260506101003 10 0 0.0 0.0 0.00 0.00 0.00 86 1014.3
20260506100004 10 0 0.0 0.0 0.00 0.00 0.00 86 1014.3
20260506095003 10 0 0.0 0.0 0.00 0.00 0.00 86 1014.3
20260506094003 10 0 0.0 0.0 0.00 0.00 0.00 86 1014.3
20260506093003 10 0 0.0 0.0 0.00 0.00 0.00 86 1014.1
20260506092003 10 0 0.0 0.0 0.00 0.00 0.00 86 1014.1
20260506091003 10 0 0.0 0.0 0.00 0.00 0.00 86 1014.2
20260506090003 10 0 0.0 0.0 0.00 0.00 0.00 86 1014.1
20260506085004 10 0 0.0 0.0 0.00 0.00 0.00 86 1014.0
20260506084003 10 0 0.0 0.0 0.00 0.00 0.00 86 1014.0
20260506083003 10 0 0.0 0.0 0.00 0.00 0.00 85 1013.9
20260506082003 11 0 0.0 0.0 0.00 0.00 0.00 85 1014.0
20260506081003 11 0 0.0 0.0 0.00 0.00 0.00 85 1013.9
20260506073004 11 0 0.0 0.0 0.00 0.00 0.00 85 1013.5
20260506072003 11 0 0.0 0.0 0.00 0.00 0.00 84 1013.4
20260506071003 11 0 0.0 0.0 0.00 0.00 0.00 84 1013.4
20260506062003 12 0 0.0 0.0 0.00 0.00 0.00 83 1013.2
20260506061003 12 0 0.0 0.0 0.00 0.00 0.00 83 1013.2
20260506051003 13 0 0.0 0.0 0.00 0.00 0.00 80 1012.7
20260506045024 14 0 0.0 0.0 0.00 0.00 0.00 77 1012.7
20260506044024 14 0 0.0 0.0 0.00 0.00 0.00 77 1012.5
20260506043003 15 0 0.0 0.0 0.00 0.00 0.00 76 1012.3
20260506042003 15 0 0.0 0.0 0.00 0.00 0.00 75 1012.2
20260506041003 15 0 0.0 0.0 0.00 0.00 0.00 75 1012.2
20260506040024 15 0 0.0 0.0 0.00 0.00 0.00 74 1012.1
20260506035003 16 0 0.0 0.0 0.00 0.00 0.00 74 1012.0
20260506034024 16 0 0.0 0.0 0.00 0.00 0.00 73 1012.0
20260506033003 16 0 0.0 0.0 0.00 0.00 0.00 72 1011.8
20260506032003 16 0 0.0 0.0 0.00 0.00 0.00 72 1011.7
20260506031003 17 0 0.0 0.0 0.00 0.00 0.00 71 1011.7
20260506030003 17 0 0.0 0.0 0.00 0.00 0.00 71 1011.6
20260506025003 17 0 0.0 0.0 0.00 0.00 0.00 70 1011.6
20260506024003 18 0 0.0 0.0 0.00 0.00 0.00 69 1011.6
20260506023003 18 0 0.0 0.0 0.00 0.00 0.00 69 1011.5
20260506022003 18 0 0.0 0.0 0.00 0.00 0.00 68 1011.4
20260506021003 19 0 0.0 0.0 0.00 0.00 0.00 67 1011.4
20260506020024 20 0 0.0 0.0 0.00 0.00 0.00 67 1011.5
20260506015003 20 0 0.0 0.0 0.00 0.00 0.00 66 1011.6
20260506014024 20 0 0.0 0.0 0.00 0.00 0.00 66 1011.5
20260506013024 20 0 0.0 0.0 0.00 0.00 0.00 65 1011.5
20260506012003 20 0 0.0 0.0 0.00 0.00 0.00 64 1011.4
20260506011003 20 0 0.0 0.0 0.00 0.00 0.00 64 1011.4
20260506010003 20 0 0.0 0.0 0.00 0.00 0.00 65 1011.5
20260506005003 21 0 0.0 0.0 0.00 0.00 0.00 65 1011.5
20260506004003 21 0 0.0 0.0 0.00 0.00 0.00 64 1011.5
20260506003024 21 0 0.0 0.0 0.00 0.00 0.00 65 1011.5
20260506002003 21 0 0.0 0.0 0.00 0.00 0.00 64 1011.5
20260506001003 21 0 0.0 0.0 0.00 0.00 0.00 66 1011.6
20260506000003 21 0 0.0 0.0 0.00 0.00 0.00 64 1011.7
20260505235024 21 0 0.0 0.0 0.00 0.00 0.00 62 1011.7
20260505234003 21 0 0.0 0.0 0.00 0.00 0.00 65 1011.8
20260505233003 21 0 0.0 0.0 0.00 0.00 0.00 64 1011.8
20260505232003 21 0 0.0 0.0 0.00 0.00 0.00 65 1011.9
20260505231003 21 0 0.0 0.0 0.00 0.00 0.00 66 1012.1
20260505230003 21 0 0.0 0.0 0.00 0.00 0.00 65 1012.1
20260505225003 21 0 0.0 0.0 0.00 0.00 0.00 66 1012.1
20260505224003 21 0 0.0 0.0 0.00 0.00 0.00 66 1012.2
20260505223003 21 0 0.0 0.0 0.00 0.00 0.00 67 1012.1
20260505222003 21 0 0.0 0.0 0.00 0.00 0.00 66 1012.1
20260505221003 21 0 0.0 0.0 0.00 0.00 0.00 64 1012.3
20260505220003 21 0 0.0 0.0 0.00 0.00 0.00 65 1012.3
20260505215003 21 0 0.0 0.0 0.00 0.00 0.00 67 1012.3
20260505214003 21 0 0.0 0.0 0.00 0.00 0.00 66 1012.3
20260505213003 21 0 0.0 0.0 0.00 0.00 0.00 66 1012.4
20260505212003 21 0 0.0 0.0 0.00 0.00 0.00 66 1012.5
20260505211003 21 0 0.0 0.0 0.00 0.00 0.00 66 1012.5
20260505210003 20 0 0.0 0.0 0.00 0.00 0.00 68 1012.6
20260505205003 20 0 0.0 0.0 0.00 0.00 0.00 68 1012.6
20260505204003 20 0 0.0 0.0 0.00 0.00 0.00 68 1012.7
20260505203003 20 0 0.0 0.0 0.00 0.00 0.00 70 1012.8
20260505202003 19 0 0.0 0.0 0.00 0.00 0.00 68 1012.7
20260505201003 19 0 0.0 0.0 0.00 0.00 0.00 72 1012.8
20260505200003 19 0 0.0 0.0 0.00 0.00 0.00 70 1012.9
20260505195003 19 0 0.0 0.0 0.00 0.00 0.00 72 1013.0
20260505194024 19 0 0.0 0.0 0.00 0.00 0.00 72 1012.9
20260505193003 18 0 0.0 0.0 0.00 0.00 0.00 74 1012.9
20260505192003 18 0 0.0 0.0 0.00 0.00 0.00 73 1012.9
20260505191003 18 0 0.0 0.0 0.00 0.00 0.00 74 1013.0
20260505190004 18 0 0.0 0.0 0.00 0.00 0.00 74 1013.0
20260505185003 17 0 0.0 0.0 0.00 0.00 0.00 76 1013.0
20260505184003 17 0 0.0 0.0 0.00 0.00 0.00 74 1013.0
20260505183024 17 0 0.0 0.0 0.00 0.00 0.00 77 1012.9
20260505182003 17 0 0.0 0.0 0.00 0.00 0.00 75 1013.0
20260505181003 17 0 0.0 0.0 0.00 0.00 0.00 76 1012.9
20260505180003 16 0 0.0 0.0 0.00 0.00 0.00 77 1012.9
20260505175003 16 0 0.0 0.0 0.00 0.00 0.00 76 1012.9
20260505174003 17 0 0.0 0.0 0.00 0.00 0.00 77 1013.0
20260505173003 16 0 0.0 0.0 0.00 0.00 0.00 79 1012.9
20260505172003 16 0 0.0 0.0 0.00 0.00 0.00 77 1013.0
20260505171003 16 0 0.0 0.0 0.00 0.00 0.00 78 1013.0
20260505170003 16 0 0.0 0.0 0.00 0.00 0.00 77 1013.0
20260505165003 16 0 0.0 0.0 0.00 0.00 0.00 79 1013.0
20260505164003 16 0 0.0 0.0 0.00 0.00 0.00 80 1013.0
20260505163003 15 0 0.0 0.0 0.00 0.00 0.00 80 1013.0
20260505162003 15 0 0.0 0.0 0.00 0.00 0.00 81 1012.9
20260505161003 15 0 0.0 0.0 0.00 0.00 0.00 81 1013.0
20260505153003 13 0 0.0 0.0 0.00 0.00 0.00 88 1012.8
20260505152024 12 0 0.0 0.0 0.00 0.00 0.00 88 1012.8
20260505151003 12 0 0.0 0.0 0.00 0.00 0.00 88 1012.8
20260505125024 10 0 0.0 0.0 0.00 0.00 0.00 85 1011.1
20260505124024 10 0 0.0 0.0 0.00 0.00 0.00 85 1011.1
20260505123004 10 0 0.0 0.0 0.00 0.00 0.00 85 1010.9
20260505122003 10 0 0.0 0.0 0.00 0.00 0.00 85 1011.0
20260505121003 10 0 0.0 0.0 0.00 0.00 0.00 85 1010.9
20260505120004 10 0 0.0 0.0 0.00 0.00 0.00 84 1010.7
20260505115003 10 0 0.0 0.0 0.00 0.00 0.00 85 1010.5
20260505114003 10 0 0.0 0.0 0.00 0.00 0.00 84 1010.4
20260505113024 11 0 0.0 0.0 0.00 0.00 0.00 84 1010.2
20260505112024 11 0 0.0 0.0 0.00 0.00 0.00 84 1010.3
20260505111003 11 0 0.0 0.0 0.00 0.00 0.00 84 1010.2